Dewpoint
29 39 41 42 42 40 36 33 32 35 36 35 35 35 34 35 33 33 33 33 32 31 30 30 30 30 28 28 27 28 28 29 31 27 27 29 28 28 28 28 28 30 31
27 37 40 41 41 39 36 33 32 35 36 35 36 35 36 35 34 33 33 33 32 31 31 30 29 29 29 29 28 27 26 26 28 28 29 24 26 27 28 28 27 28 30
25 36 38 39 40 39 35 32 32 34 36 36 36 37 37 35 33 33 32 33 32 31 31 30 28 28 28 27 28 28 25 23 26 27 27 24 20 26 27 27 27 27 28
24 35 37 37 38 38 34 32 33 34 36 36 36 35 35 33 33 33 33 33 32 31 31 29 28 28 28 27 26 26 27 25 22 24 24 23 23 21 22 27 24 27 28
23 32 34 36 36 36 33 32 33 35 36 37 37 36 35 35 35 34 33 32 32 32 31 29 29 28 28 26 25 24 23 23 22 22 22 21 21 22 19 18 17 22 26
23 27 31 33 34 34 33 32 33 34 36 37 37 36 35 35 34 33 32 32 32 32 31 30 29 28 27 26 26 25 24 23 22 22 21 20 18 17 17 16 19 19 22
24 24 27 30 32 33 32 33 33 34 36 37 37 36 35 35 34 33 32 32 31 31 30 30 28 28 28 27 26 25 24 23 22 22 22 22 21 22 23 20 20 17 21
27 26 26 28 31 32 32 33 34 34 36 37 37 36 36 36 36 34 34 32 32 31 30 30 28 28 28 27 26 26 26 25 24 23 23 23 24 24 24 22 18 14 19
28 29 30 30 31 32 32 33 34 34 36 36 37 37 37 37 36 35 34 33 32 31 30 29 28 27 27 27 25 26 26 26 26 25 24 24 25 25 25 26 25 19 11
27 29 31 32 33 34 34 35 35 35 36 37 37 37 37 37 36 35 33 33 31 30 29 28 28 27 27 27 26 26 26 26 26 25 25 25 25 25 25 25 26 25 23
25 26 30 32 34 35 35 35 36 36 36 36 36 36 36 36 35 34 33 32 30 30 29 28 28 27 27 27 27 27 26 26 25 26 25 25 25 25 25 25 25 25 25
30 28 29 31 33 34 35 35 36 35 35 35 34 34 34 33 33 31 31 31 29 29 29 28 28 27 26 26 26 25 25 25 25 24 24 24 24 24 24 24 23 23 24
33 30 29 31 33 33 33 33 33 33 33 33 32 31 31 30 30 29 29 28 28 27 27 27 26 26 25 24 24 24 23 23 23 22 22 22 22 22 22 23 22 23 23
31 31 30 30 31 32 31 31 31 31 31 31 30 29 28 28 27 27 26 26 25 25 25 25 25 23 21 20 19 19 19 19 20 22 22 22 22 22 22 23 22 23 22
29 30 30 31 32 31 31 31 31 31 30 29 28 27 27 26 26 26 26 26 24 24 23 22 20 19 18 18 20 20 21 21 21 22 22 22 22 24 23 23 24 24 23
26 28 29 31 31 32 32 31 30 29 29 28 28 28 28 28 28 29 30 30 30 29 28 22 19 17 16 22 24 23 22 22 21 21 21 21 23 22 22 22 24 25 23
26 27 28 30 31 32 32 31 31 30 28 28 29 30 30 29 29 29 28 28 28 27 25 19 19 18 18 23 22 24 22 22 21 20 20 20 19 21 18 19 19 20 19
27 27 29 30 31 32 32 31 30 30 29 29 29 29 29 28 28 27 27 27 27 25 19 18 18 18 17 22 22 24 22 21 21 20 20 19 19 19 19 19 19 19 20
28 28 28 30 31 31 30 29 28 28 28 27 27 27 27 27 26 26 25 25 23 18 17 17 18 17 16 20 22 22 21 19 19 19 18 19 18 20 21 21 21 21 21
27 28 28 30 30 29 28 27 26 26 26 26 27 27 27 26 25 25 24 17 17 17 17 16 17 18 16 20 21 22 20 19 19 19 19 21 20 22 21 22 22 21 22
27 27 29 29 29 27 27 26 25 25 25 27 27 26 26 25 22 17 18 17 16 17 17 17 17 16 18 17 20 21 20 20 19 19 19 19 21 21 21 21 22 22 22
24 26 28 28 28 27 26 25 25 25 27 27 25 24 21 16 16 16 16 16 17 17 16 17 17 18 17 19 19 20 21 22 20 19 20 21 22 21 22 22 26 26 24
24 24 28 28 26 27 26 25 25 26 25 23 22 22 21 15 15 15 15 15 16 16 16 17 17 18 18 18 20 20 21 22 22 21 22 22 22 23 23 24 23 21 22
24 27 29 26 24 23 25 27 24 24 22 21 21 20 15 14 14 14 15 16 16 16 16 17 18 18 17 17 17 18 19 20 21 21 20 21 21 22 24 21 21 22 22
18 25 26 24 22 20 20 20 21 21 20 18 15 15 15 16 14 14 15 16 17 16 15 16 17 17 16 17 18 18 17 17 18 20 21 22 22 21 20 21 22 23 21
11 13 14 15 15 15 15 14 15 17 18 17 16 15 15 15 15 16 16 18 18 18 19 19 18 18 18 18 19 19 19 19 20 23 23 22 20 20 20 20 21 21 19
Wind_Speed
15 18 20 21 21 21 23 22 22 18 18 15 15 13 12 10 8 8 9 10 11 11 12 11 11 11 13 11 11 9 12 9 4 9 12 12 13 14 14 13 13 14 14
14 17 20 21 24 24 22 22 22 20 18 16 11 7 11 5 7 8 8 9 11 11 11 12 11 11 12 11 9 7 7 4 2 3 4 3 4 10 11 11 11 13 12
20 19 21 22 21 23 24 23 21 21 18 17 13 11 7 8 5 6 7 6 10 10 12 11 12 11 11 11 8 7 7 9 8 5 3 4 3 3 4 8 11 11 11
12 16 20 20 22 20 19 20 20 20 18 18 17 19 13 14 7 8 6 8 8 10 11 11 11 11 10 11 9 7 7 7 9 6 11 10 5 4 4 1 4 9 9
18 20 20 21 17 20 22 21 20 18 17 18 18 18 15 8 10 10 13 9 7 9 10 11 12 12 11 10 11 11 12 7 6 5 3 7 10 7 3 4 2 4 7
11 11 12 15 17 17 19 20 21 20 18 18 17 20 20 16 17 15 15 11 8 8 9 10 11 11 12 12 11 11 12 12 12 11 8 4 3 3 4 4 1 1 3
8 11 15 15 16 19 20 19 20 21 19 18 18 18 20 19 21 20 18 16 13 8 10 10 11 10 10 11 12 12 11 10 11 10 10 9 9 5 5 5 2 2 1
4 8 12 15 17 18 19 18 20 20 20 20 21 19 18 16 15 17 15 15 15 14 12 11 11 11 11 10 10 12 11 11 10 11 10 10 8 8 5 5 3 2 2
4 4 6 10 13 15 18 20 20 18 20 19 18 18 17 17 17 16 16 16 15 14 15 14 13 12 11 12 11 10 11 11 9 9 9 9 7 7 7 7 4 3 1
6 2 3 7 9 11 13 14 17 21 19 18 16 14 16 15 15 16 17 16 13 12 14 16 15 13 12 11 11 10 9 11 8 8 9 7 6 6 6 5 5 4 3
5 4 4 6 9 9 11 14 15 15 15 15 14 14 14 15 16 16 14 15 15 13 14 14 13 11 11 11 10 9 9 10 9 6 8 7 6 6 5 5 4 3 2
8 6 6 4 5 7 8 12 12 14 13 11 12 13 13 15 15 16 16 16 15 14 11 9 10 11 9 9 11 10 8 9 9 8 8 7 7 6 5 4 3 2 2
8 8 7 4 3 5 6 7 9 11 12 13 14 13 12 13 15 16 16 15 15 14 14 14 13 12 9 8 8 9 9 7 7 7 7 7 7 6 4 4 4 3 3
6 4 5 6 5 1 6 9 10 10 12 14 14 14 13 14 13 13 13 14 13 13 12 11 12 10 10 9 8 8 8 7 7 7 7 7 6 6 5 4 3 2 2
5 7 5 4 4 3 6 11 11 15 14 15 15 15 14 14 14 14 14 13 13 10 9 9 8 7 7 8 9 9 8 8 7 5 5 5 5 7 8 5 3 2 1
5 7 7 6 7 8 7 4 9 9 11 16 15 13 14 13 13 13 12 11 10 9 7 7 8 8 5 9 10 9 7 6 6 6 4 4 5 3 2 2 5 6 3
7 7 9 12 10 11 11 12 10 10 12 15 15 14 13 13 12 12 11 11 10 9 10 10 9 8 6 9 7 8 7 6 5 4 4 4 4 6 3 1 2 2 4
8 10 11 10 10 9 11 10 11 11 12 12 13 13 13 13 13 12 12 11 9 11 11 10 10 9 8 11 9 9 7 5 5 4 4 4 4 3 4 3 4 5 7
6 11 14 12 8 9 10 12 12 12 13 13 14 13 13 13 13 12 10 9 11 11 10 9 10 10 9 10 11 9 7 5 5 4 3 5 5 6 5 5 6 6 8
9 12 14 13 11 12 11 14 14 14 15 14 13 12 11 12 13 11 11 9 8 10 9 9 10 10 9 9 12 10 8 6 4 3 2 2 5 6 6 5 5 7 9
17 16 13 14 17 13 15 17 15 18 13 11 12 12 10 10 11 10 8 9 10 9 11 10 9 8 8 8 10 11 10 8 6 5 3 3 4 6 7 9 5 7 8
19 19 17 16 14 15 17 17 18 13 12 12 11 10 10 8 8 9 8 8 10 11 11 10 9 7 7 10 11 12 12 12 9 8 7 6 7 7 7 8 9 11 9
22 19 18 17 14 16 18 18 15 14 14 13 12 12 10 8 7 10 10 9 10 12 12 10 10 9 8 8 11 12 13 14 11 11 8 8 8 8 5 6 9 9 5
20 18 15 16 17 16 14 14 14 14 14 13 12 12 12 11 9 7 9 11 12 13 12 12 10 9 8 7 7 6 5 7 6 9 5 4 7 7 5 6 8 8 6
18 14 11 13 14 12 11 6 9 12 12 11 11 10 10 10 10 9 11 10 10 12 12 12 11 11 11 9 10 9 8 6 8 8 6 7 8 9 7 8 8 8 7
17 15 12 10 6 4 6 5 6 2 5 8 8 10 9 8 7 9 8 11 11 12 13 12 11 9 10 11 11 11 13 14 15 10 10 11 10 9 8 9 10 9 10
Wind_Direction
202 184 173 164 160 162 162 164 163 162 155 152 152 151 154 149 140 136 131 126 122 116 111 105 104 105 106 113 117 109 110 103 110 98 74 61 62 62 57 59 64 62 60
178 175 165 162 168 169 169 168 170 167 167 164 162 152 150 154 147 144 130 133 128 125 120 118 114 114 114 111 112 116 120 71 358 125 109 117 54 46 43 52 55 61 61
179 175 170 169 166 171 174 174 173 172 172 166 147 128 107 113 127 148 139 137 133 128 126 122 119 115 116 113 114 132 133 128 56 74 148 135 155 122 23 43 47 60 64
171 173 170 174 175 176 172 173 174 172 175 166 162 163 166 167 176 163 156 137 133 130 128 127 123 117 114 107 99 99 120 124 124 77 56 72 126 152 176 353 37 47 60
179 180 182 179 177 172 176 175 175 174 174 175 172 172 170 166 154 154 152 147 139 137 137 135 131 123 116 109 106 97 91 93 112 115 119 73 70 76 132 139 20 64 42
184 182 174 168 174 174 175 177 179 183 180 180 182 183 180 171 165 166 167 163 153 146 143 140 134 129 124 119 110 103 98 97 91 86 86 108 120 89 91 108 93 87 37
180 177 175 179 178 182 184 182 182 187 187 186 188 190 188 179 179 176 175 171 166 165 160 148 144 138 131 125 119 111 106 104 102 100 92 84 85 107 99 100 96 51 348
101 174 187 186 186 187 188 186 189 190 190 191 195 190 187 184 183 178 175 176 176 168 164 155 150 144 137 128 121 116 113 111 110 108 103 98 84 85 99 123 129 65 353
65 124 171 190 188 190 192 191 192 195 193 196 193 195 194 186 185 183 174 177 174 169 164 159 155 152 144 140 135 130 125 120 117 113 112 104 91 89 89 99 108 119 89
47 127 190 184 185 191 193 195 196 195 195 195 197 202 197 189 180 170 177 175 170 162 164 161 158 156 150 145 139 134 135 127 127 123 116 106 101 91 87 97 102 94 124
13 351 295 235 212 201 195 196 194 192 192 193 193 187 179 172 165 168 169 167 158 161 165 162 157 157 152 145 142 139 138 129 124 119 120 109 110 98 84 78 84 94 137
339 334 339 294 241 217 207 201 192 187 185 175 168 166 154 152 151 151 151 149 153 147 152 149 144 145 145 143 144 144 142 141 139 131 124 115 110 99 90 87 81 77 70
319 334 350 338 237 190 167 157 151 149 141 141 139 132 133 137 141 139 140 141 145 146 149 152 151 150 142 135 137 140 136 139 141 142 142 138 130 130 123 114 102 81 57
317 315 346 348 351 11 152 148 143 143 141 139 140 139 137 133 124 119 117 125 131 139 143 144 143 144 142 147 145 141 138 139 140 143 147 152 151 151 148 131 120 112 16
300 307 305 290 263 240 189 164 165 158 153 148 148 146 132 122 119 120 117 115 115 115 120 126 126 141 158 162 151 147 147 149 143 144 154 163 171 169 174 164 190 158 183
285 292 276 273 263 236 226 244 168 163 154 152 150 140 134 128 126 123 121 122 122 118 123 164 170 170 182 171 152 146 146 152 159 164 163 154 135 119 177 190 151 183 194
265 285 277 255 239 228 218 208 194 162 159 154 149 151 149 148 148 141 142 147 153 159 178 186 180 179 178 168 162 148 144 151 155 154 167 174 150 133 135 131 282 297 289
268 277 283 271 258 227 214 195 180 176 171 168 164 161 160 157 154 157 163 166 175 189 191 188 183 177 188 182 169 165 153 158 172 186 191 194 192 203 202 214 238 255 266
292 295 287 265 250 227 203 191 184 180 178 175 169 164 162 160 162 171 179 184 189 193 191 189 186 184 188 193 180 169 164 180 189 195 193 206 218 242 247 235 242 261 271
280 278 282 248 230 214 201 197 193 185 187 177 170 164 167 172 176 181 193 198 190 186 183 181 190 196 195 200 191 175 172 191 192 190 188 236 215 235 250 253 251 255 267
270 260 244 240 238 205 194 204 194 199 190 172 168 173 176 186 197 187 183 191 192 181 186 185 186 196 188 201 207 200 178 188 196 213 225 243 273 276 277 276 259 250 263
305 277 244 239 224 204 196 203 203 190 169 169 173 175 184 183 179 183 185 187 188 189 192 193 199 207 212 213 218 216 204 194 200 216 230 248 264 270 269 280 297 298 307
304 289 246 239 217 202 202 204 199 169 169 169 175 181 184 187 181 188 194 197 196 198 200 201 208 213 213 219 220 218 218 209 201 219 232 238 255 271 304 301 300 311 336
304 293 250 234 230 204 199 206 170 162 166 179 186 187 187 187 189 189 196 198 203 207 208 207 212 214 211 205 207 224 217 207 215 186 216 258 261 267 277 300 302 292 268
342 331 282 259 245 200 182 157 153 159 175 187 182 185 194 199 200 206 206 204 213 208 212 220 214 212 213 213 210 207 212 221 227 226 237 253 258 249 259 283 284 276 267
352 6 13 28 27 95 102 70 54 95 179 201 195 198 195 196 205 208 209 221 213 225 225 220 206 211 218 220 220 221 220 223 227 230 226 232 228 228 250 266 271 269 262